Miscellaneous Local Product
Issued by NWS Hastings, NE

Current Version | Previous Version | Text Only | Print | Product List | Glossary On
Versions: 1 2 3 4 5 6 7 8 9 10 11 12 13 14 15 16 17 18 19 20 21 22 23 24 25 26 27 28 29 30 31 32 33 34 35 36 37 38 39 40 41 42 43 44 45 46 47 48 49 50
878
AXUS43 KGID 280702
MISGRI

GID CWA HOURLY WEATHER ROUNDUP
NATIONAL WEATHER SERVICE HASTINGS NE
200 AM CDT FRI APR 28 2017

NOTE: "FAIR" INDICATES FEW OR NO CLOUDS BELOW 12,000 FEET WITH NO
SIGNIFICANT WEATHER AND/OR OBSTRUCTIONS TO VISIBILITY.

...SOUTH CENTRAL NEBRASKA...

CITY           SKY/WX    TMP DP  RH WIND       PRES   REMARKS
GRAND ISLAND   CLOUDY    46  43  89 E8        29.72F
HASTINGS       CLOUDY    47  43  86 E13       29.70F
KEARNEY        CLOUDY    46  39  76 E12       29.69S
ORD            CLOUDY    45  40  82 NE9       29.71F
YORK           CLOUDY    48  43  81 E10       29.73F
AURORA         CLOUDY    47  43  84 E7        29.72S
LEXINGTON      LGT RAIN  45  42  90 E10       29.67F
HOLDREGE       LGT RAIN  44  42  93 SE16      29.67S
HEBRON         RAIN      47  44  90 E7        29.70F

...NEBRASKA PANHANDLE...

CITY           SKY/WX    TMP DP  RH WIND       PRES   REMARKS
CHADRON        RAIN      40  38  93 NE14      29.67S FOG     WCI  32
ALLIANCE       LGT RAIN  39  37  92 SE16      29.63S WCI  30
SCOTTSBLUFF    CLOUDY    42  38  85 E13       29.61F
SIDNEY         CLOUDY    38  36  92 SE7       29.63F WCI  33

...WESTERN AND NORTH CENTRAL NEBRASKA...

CITY           SKY/WX    TMP DP  RH WIND       PRES   REMARKS
VALENTINE      CLOUDY    43  32  65 E14       29.75R
AINSWORTH      CLOUDY    40  36  83 E15       29.75S WCI  32
ONEILL         CLOUDY    41  32  70 E13G18    29.78S
BROKEN BOW     CLOUDY    45  40  82 E10       29.69F
IMPERIAL       LGT RAIN  42  40  92 NE8       29.62F
NORTH PLATTE   RAIN      44  42  93 E10       29.66F FOG
MCCOOK         RAIN      44  44 100 E16       29.60S FOG

...EASTERN NEBRASKA...

CITY           SKY/WX    TMP DP  RH WIND       PRES   REMARKS
NORFOLK        CLEAR     41  32  70 E8        29.78R
SO SIOUX CITY  CLEAR     38  33  82 E10       29.84R WCI  31
TEKAMAH        CLOUDY    39  32  76 NE3       29.81R
COLUMBUS       CLOUDY    45  32  61 E10       29.77F
ALBION         CLOUDY    43  34  69 E10       29.76S
OMAHA EPPLEY   CLOUDY    48  34  58 VRB3      29.79S
MILLARD        CLOUDY    53  37  55 NE3       29.78S
LINCOLN        LGT RAIN  50  44  80 E5        29.77S
NEBRASKA CITY  CLOUDY    50  43  79 SE5       29.78S
BEATRICE       DRIZZLE   49  47  93 E6        29.75F
FALLS CITY     CLOUDY    50  47  89 CALM      29.78R

...NORTHERN KANSAS...

CITY           SKY/WX    TMP DP  RH WIND       PRES   REMARKS
GOODLAND       PTCLDY    39  37  92 W6        29.60F WCI  35
HILL CITY      CLOUDY    46  45  96 E9        29.61S
NORTON         CLOUDY    43  39  87 E9G18     29.61S
PHILLIPSBURG   CLOUDY    46  46 100 E12G17    29.63F
SMITH CENTER   RAIN      45  43  93 E15       29.65R
HAYS           CLOUDY    48  46  93 E14       29.59S
RUSSELL        LGT RAIN  47  45  93 E20G26    29.59F
CONCORDIA      HVY RAIN  46  46 100 E14G23    29.67F FOG
SALINA         CLOUDY    51  47  86 E15       29.63F
TOPEKA         CLOUDY    51  49  92 E10       29.71F



USA.gov is the U.S. government's official web portal to all federal, state and local government web resources and services.